EW5212 Weather Reports


time (UTC)temp
C
wind
direction
speed
KPH
gust
KPH
rain 1hr
cm
rain 24hr
cm
rain mn
cm
humidity
%
barometer
mb
20260504181017 24 293 3.2 9.7 0.00 0.00 0.00 37 1014.1
20260504180017 23 293 3.2 9.7 0.00 0.00 0.00 38 1014.2
20260504175017 23 293 4.8 12.9 0.00 0.00 0.00 36 1014.3
20260504174016 23 270 3.2 9.7 0.00 0.00 0.00 35 1014.4
20260504173016 24 270 3.2 8.0 0.00 0.00 0.00 34 1014.5
20260504172016 25 270 3.2 11.3 0.00 0.00 0.00 35 1014.5
20260504171016 24 90 3.2 9.7 0.00 0.00 0.00 36 1014.6
20260504151016 22 68 3.2 6.4 0.00 0.00 0.00 39 1016.0
20260504141016 20 270 1.6 4.8 0.00 0.00 0.00 48 1016.2
20260504081016 7 0.0 0.0 0.00 0.00 0.00 87 1017.2
20260504050016 5 0.0 0.0 0.00 0.00 0.00 87 1017.2
20260504045016 5 0.0 0.0 0.00 0.00 0.00 87 1017.2
20260504044015 5 0.0 0.0 0.00 0.00 0.00 87 1017.2
20260504043016 5 0.0 0.0 0.00 0.00 0.00 86 1017.0
20260504042015 5 0.0 0.0 0.00 0.00 0.00 86 1017.1
20260504041015 5 0.0 0.0 0.00 0.00 0.00 86 1017.1
20260504040036 5 0.0 0.0 0.00 0.00 0.00 86 1016.9
20260504035035 5 0.0 0.0 0.00 0.00 0.00 86 1016.8
20260504034015 4 0.0 0.0 0.00 0.00 0.00 85 1016.8
20260504033015 4 0.0 0.0 0.00 0.00 0.00 85 1016.9
20260504032015 4 0.0 0.0 0.00 0.00 0.00 84 1016.9
20260504031015 5 0.0 0.0 0.00 0.00 0.00 84 1016.9
20260504030015 5 0.0 0.0 0.00 0.00 0.00 83 1016.8
20260504025015 5 0.0 0.0 0.00 0.00 0.00 82 1016.8
20260504024015 5 0.0 0.0 0.00 0.00 0.00 82 1016.9
20260504023015 5 0.0 0.0 0.00 0.00 0.00 81 1016.9
20260504022015 6 0.0 0.0 0.00 0.00 0.00 81 1016.9
20260504021015 6 0.0 0.0 0.00 0.00 0.00 79 1016.7
20260504020035 6 0.0 0.0 0.00 0.00 0.00 78 1016.6
20260504015035 7 0.0 0.0 0.00 0.00 0.00 78 1016.6
20260504014015 7 0.0 0.0 0.00 0.00 0.00 76 1016.6
20260504013015 7 0.0 0.0 0.00 0.00 0.00 75 1016.6
20260504012015 8 0.0 0.0 0.00 0.00 0.00 74 1016.4
20260504011015 8 0.0 0.0 0.00 0.00 0.00 72 1016.3
20260504010015 9 0.0 0.0 0.00 0.00 0.00 71 1016.5
20260504005015 10 0.0 0.0 0.00 0.00 0.00 68 1016.4
20260504004015 10 0.0 0.0 0.00 0.00 0.00 65 1016.3
20260504003015 11 0.0 0.0 0.00 0.00 0.00 62 1016.2
20260504002015 12 0.0 0.0 0.00 0.00 0.00 58 1016.0
20260504001015 13 0.0 0.0 0.00 0.00 0.00 54 1016.0
20260504000015 14 0.0 0.0 0.00 0.00 0.00 51 1015.9
20260503235015 15 0.0 0.0 0.00 0.00 0.00 48 1015.8
20260503234035 16 0.0 4.8 0.00 0.00 0.00 39 1015.8
20260503233035 16 0.0 0.0 0.00 0.00 0.00 38 1015.7
20260503232017 17 0.0 0.0 0.00 0.00 0.00 38 1015.7
20260503231017 17 0.0 4.8 0.00 0.00 0.00 36 1015.5
20260503230035 17 270 1.6 6.4 0.00 0.00 0.00 35 1015.6
20260503225017 17 293 1.6 6.4 0.00 0.00 0.00 35 1015.7
20260503224017 18 270 1.6 6.4 0.00 0.00 0.00 34 1015.8
20260503223017 17 0.0 0.0 0.00 0.00 0.00 38 1015.7
20260503222017 18 270 1.6 9.7 0.00 0.00 0.00 34 1015.9
20260503221017 18 270 1.6 6.4 0.00 0.00 0.00 35 1016.1
20260503220037 18 293 1.6 4.8 0.00 0.00 0.00 33 1016.1
20260503215017 19 270 3.2 11.3 0.00 0.00 0.00 32 1016.3
20260503214017 19 0.0 3.2 0.00 0.00 0.00 32 1016.1
20260503213017 18 270 3.2 14.5 0.00 0.00 0.00 32 1016.2
20260503212017 18 270 4.8 9.7 0.00 0.00 0.00 32 1016.1
20260503211017 19 270 1.6 11.3 0.00 0.00 0.00 34 1016.1
20260503210017 18 270 1.6 9.7 0.00 0.00 0.00 33 1016.2
20260503205057 18 45 3.2 9.7 0.00 0.00 0.00 34 1016.2
20260503204037 18 270 3.2 14.5 0.00 0.00 0.00 33 1016.2
20260503203017 18 270 3.2 14.5 0.00 0.00 0.00 34 1016.3
20260503202057 18 270 3.2 12.9 0.00 0.00 0.00 33 1016.5
20260503201017 18 293 3.2 9.7 0.00 0.00 0.00 35 1016.5
20260503200017 18 293 1.6 6.4 0.00 0.00 0.00 35 1016.6
20260503195017 19 293 1.6 4.8 0.00 0.00 0.00 33 1016.8
20260503194017 18 270 1.6 4.8 0.00 0.00 0.00 34 1017.0
20260503193017 18 293 3.2 16.1 0.00 0.00 0.00 33 1017.1
20260503192017 18 270 4.8 11.3 0.00 0.00 0.00 34 1017.2
20260503191016 17 293 4.8 12.9 0.00 0.00 0.00 35 1017.4
20260503190017 18 293 3.2 8.0 0.00 0.00 0.00 33 1017.7
20260503185017 17 270 3.2 11.3 0.00 0.00 0.00 33 1017.8
20260503184057 17 293 3.2 11.3 0.00 0.00 0.00 35 1017.9
20260503183017 17 45 1.6 4.8 0.00 0.00 0.00 35 1017.9
20260503182017 17 270 3.2 11.3 0.00 0.00 0.00 36 1018.0